Voltar ao catálogo

GESAT GEN 1

AtivoComunicaçõesSSO
NORAD 62612·PAYLOAD·🇫🇷 France

Lançado Jan 14, 2025 de Vandenberg Space Force Base

Loading…

Próximas Passagens (próximas 24 horas)

TLE

AtualizadoSource: Space-Track

Época: Sep 14, 2026, 11:14 UTC

1 62612U 25009D   26257.46838658  .00006974  00000-0  24361-3 0  9998
2 62612  97.3970 339.0557 0001526  76.5312 283.6098 15.29888351 92562

Acompanhe GESAT GEN 1 em tempo real com AllMySat

Download on the App Store